User: anonymous   Login
Location: Dob?e?
(49.9411°N, 15.1496°E)
Time: 12:44:40
(UTC+00:00)
Language:

GEOS 3 Rocket - Orbit

View from above orbital plane
View from above orbital plane
View from above satellite
View from above satellite

Ground track
Ground track

The orbit data is extracted from the following two-line orbital elements,

1  7735U 75027B   20218.67048232 -.00000160 +00000-0 +77697-5 0  9997
2  7735 114.9748 122.4041 0053354 295.3207 064.2354 14.24612883353330
Epoch (UTC): 05 August 2020 16:05:29
Eccentricity: 0.0053354
inclination: 114.9748°
perigee height: 771 km
apogee height: 848 km
right ascension of ascending node: 122.4041°
argument of perigee: 295.3207°
revolutions per day: 14.24612883
mean anomaly at epoch: 64.2354°
orbit number at epoch: 35333

The dashed part of the orbit path shows where the satellite is in the earth's shadow,  

DLR